World > North America > United States > Arkansas
Hourly Weather in Vendor, ArkansasVendor, Arkansas Hourly Weather

Vendor, AR Hourly Weather

Hourly Weather Vendor, ArkansasHourly Weather in Vendor, AR
Lat: 35.95N, Lon: 93.08W  ICAO: KHRO
Web Search

If you are on your PC, you can easily pass this page to your phone by scanning the QR Code near the bottom with your camera.

Feedback

Vendor Hourly Weather

36 Hour Weather Scroll   °F Click to change Vendor hourly weather to Imperial units.Click to change Vendor hourly weather to Metric units. °C
Currently, Clear, temperature is 45°F7°C, dew point 35°F2°C, humidity 68%. Wind direction is W at 5 mph8 km/h with visibility of 10.00 mi16 km. Barometric pressure is 30.3 in1026 mb.

Oct 17
3:00 AM

Oct 17
4:00 AM

Oct 17
5:00 AM

Oct 17
6:00 AM

Oct 17
7:00 AM

Oct 17
8:00 AM

Oct 17
9:00 AM

Oct 17
10:00 AM

Oct 17
11:00 AM

Oct 17
NOON

Oct 17
1:00 PM

Oct 17
2:00 PM

Oct 17
3:00 PM

Oct 17
4:00 PM

Oct 17
5:00 PM

Oct 17
6:00 PM

Oct 17
7:00 PM

Oct 17
8:00 PM

Oct 17
9:00 PM

Oct 17
10:00 PM

Oct 17
11:00 PM

Oct 18
MIDNIGHT

Oct 18
1:00 AM

Oct 18
2:00 AM

Oct 18
3:00 AM

Oct 18
4:00 AM

Oct 18
5:00 AM

Oct 18
6:00 AM

Oct 18
7:00 AM

Oct 18
8:00 AM

Oct 18
9:00 AM

Oct 18
10:00 AM

Oct 18
11:00 AM

Oct 18
NOON

Oct 18
1:00 PM

Oct 18
2:00 PM
Clear Clear Clear Clear Clear Clear Clear Clear Clear Clear Clear Clear Clear Clear Clear Clear Clear Clear Clear Clear Clear Clear Clear Clear Clear Clear Clear Clear Clear Clear Clear Clear Clear Clear Clear Clear
Clear Clear Clear Clear Clear Clear Clear Clear Clear Clear Clear Clear Clear Clear Clear Clear Clear Clear Clear Clear Clear Clear Clear Clear Clear Clear Clear Clear Clear Clear Clear Clear Clear Clear Clear Clear
45°F7°C 44°F7°C 43°F6°C 43°F6°C 42°F6°C 46°F8°C 51°F11°C 55°F13°C 59°F15°C 63°F17°C 67°F19°C 68°F20°C 69°F21°C 70°F21°C 67°F19°C 64°F18°C 61°F16°C 59°F15°C 56°F13°C 54°F12°C 53°F12°C 52°F11°C 51°F11°C 50°F10°C 50°F10°C 49°F9°C 49°F9°C 48°F9°C 48°F9°C 51°F11°C 55°F13°C 58°F14°C 62°F17°C 65°F18°C 69°F21°C 70°F21°C
- - - - - - - - - - - - - - - - - - - - - - - - - - - - - - - - - - - -
0% 0% 0% 0% 0% 0% 0% 0% 0% 0% 0% 0% 0% 0% 0% 0% 0% 1% 1% 1% 1% 1% 1% 1% 1% 1% 1% 1% 1% 1% 1% 1% 1% 1% 1% 1%
35°F2°C 35°F2°C 35°F2°C 35°F2°C 35°F2°C 37°F3°C 38°F3°C 40°F4°C 40°F4°C 39°F4°C 39°F4°C 39°F4°C 39°F4°C 39°F4°C 40°F4°C 40°F4°C 41°F5°C 41°F5°C 42°F6°C 42°F6°C 42°F6°C 43°F6°C 43°F6°C 43°F6°C 43°F6°C 43°F6°C 43°F6°C 43°F6°C 43°F6°C 44°F7°C 45°F7°C 46°F8°C 45°F7°C 45°F7°C 44°F7°C 43°F6°C
68% 70% 73% 73% 76% 71% 61% 57% 49% 41% 36% 35% 33% 32% 37% 41% 48% 51% 59% 64% 66% 71% 74% 77% 77% 80% 80% 83% 83% 77% 69% 64% 54% 48% 41% 38%
SSW SSW SSW SSW SSW SSW SSW SSW SSW SSW SSW SSW SSW SSW SSW SW S S S S S S S S SSE SSE SSE SSE SSE SSE SSE SSE SSE SSE SSE SSE
3 mph 3 mph 3 mph 2 mph 2 mph 2 mph 4 mph 4 mph 4 mph 5 mph 5 mph 5 mph 5 mph 5 mph 5 mph 1 mph 1 mph 1 mph 3 mph 3 mph 3 mph 2 mph 2 mph 2 mph 2 mph 2 mph 2 mph 3 mph 3 mph 3 mph 5 mph 5 mph 5 mph 8 mph 8 mph 8 mph
10 mi16 km 10 mi16 km 10 mi16 km 10 mi16 km 10 mi16 km 10 mi16 km 10 mi16 km 10 mi16 km 10 mi16 km 10 mi16 km 10 mi16 km 10 mi16 km 10 mi16 km 10 mi16 km 10 mi16 km 10 mi16 km 10 mi16 km 10 mi16 km 10 mi16 km 10 mi16 km 10 mi16 km 10 mi16 km 10 mi16 km 10 mi16 km 10 mi16 km 10 mi16 km 10 mi16 km 10 mi16 km 10 mi16 km 10 mi16 km 10 mi16 km 10 mi16 km 10 mi16 km 10 mi16 km 10 mi16 km 10 mi16 km
Hour (CDT)
Weather
Clouds
Temperature
Precip. Type
POP
Dewpoint
Humidity
Wind Direction
Wind Speed
Visibility
POP = Probability of Precipitation. ** Indicates missing data/values from model statistics.

24 Hour Forecast

Overnight - Clear. Lows in the lower 40s. Light and variable winds.
Sunday - Sunny. Highs around 70. Southwest winds 5 mph.

48 Hour Forecast API Feed


Sun, Oct 17
3:00 am

Sun, Oct 17
4:00 am

Sun, Oct 17
5:00 am

Sun, Oct 17
6:00 am

Sun, Oct 17
7:00 am

Sun, Oct 17
8:00 am

Sun, Oct 17
9:00 am

Sun, Oct 17
10:00 am

Sun, Oct 17
11:00 am

Sun, Oct 17
Noon

Sun, Oct 17
1:00 pm

Sun, Oct 17
2:00 pm

Sun, Oct 17
3:00 pm

Sun, Oct 17
4:00 pm

Sun, Oct 17
5:00 pm

Sun, Oct 17
6:00 pm

Sun, Oct 17
7:00 pm

Sun, Oct 17
8:00 pm

Sun, Oct 17
9:00 pm

Sun, Oct 17
10:00 pm

Sun, Oct 17
11:00 pm

Mon, Oct 18
Midnight

Mon, Oct 18
1:00 am

Mon, Oct 18
2:00 am

Mon, Oct 18
3:00 am

Mon, Oct 18
4:00 am

Mon, Oct 18
5:00 am

Mon, Oct 18
6:00 am

Mon, Oct 18
7:00 am

Mon, Oct 18
8:00 am

Mon, Oct 18
9:00 am

Mon, Oct 18
10:00 am

Mon, Oct 18
11:00 am

Mon, Oct 18
Noon

Mon, Oct 18
1:00 pm

Mon, Oct 18
2:00 pm

Mon, Oct 18
3:00 pm

Mon, Oct 18
4:00 pm

Mon, Oct 18
5:00 pm

Mon, Oct 18
6:00 pm

Mon, Oct 18
7:00 pm

Mon, Oct 18
8:00 pm

Mon, Oct 18
9:00 pm

Mon, Oct 18
10:00 pm

Mon, Oct 18
11:00 pm

Tue, Oct 19
Midnight

Tue, Oct 19
1:00 am

Tue, Oct 19
2:00 am
ClearClearClearClearClearSunnySunnySunnySunnySunnySunnySunnySunnySunnySunnySunnyClearClearClearClearClearClearClearClearClearClearClearClearClearSunnySunnySunnySunnySunnySunnySunnySunnySunnySunnySunnyClearClearClearClearClearClearClearClear
Clear Clear Clear Clear Clear Sunny Sunny Sunny Sunny Sunny Sunny Sunny Sunny Sunny Sunny Sunny Clear Clear Clear Clear Clear Clear Clear Clear Clear Clear Clear Clear Clear Sunny Sunny Sunny Sunny Sunny Sunny Sunny Sunny Sunny Sunny Sunny Clear Clear Clear Clear Clear Clear Clear Clear
46°F
8°C
46°F
8°C
45°F
7°C
45°F
7°C
45°F
7°C
47°F
8°C
52°F
11°C
58°F
15°C
65°F
18°C
68°F
20°C
71°F
22°C
72°F
22°C
72°F
22°C
72°F
22°C
70°F
21°C
65°F
18°C
59°F
15°C
54°F
12°C
53°F
12°C
53°F
11°C
52°F
11°C
51°F
11°C
51°F
10°C
50°F
10°C
50°F
10°C
49°F
10°C
49°F
9°C
49°F
9°C
48°F
9°C
49°F
10°C
55°F
13°C
60°F
16°C
64°F
18°C
66°F
19°C
68°F
20°C
69°F
21°C
71°F
22°C
71°F
21°C
69°F
21°C
64°F
18°C
59°F
15°C
54°F
12°C
53°F
12°C
52°F
11°C
51°F
11°C
50°F
10°C
51°F
10°C
50°F
10°C
33°F
1°C
33°F
0°C
32°F
0°C
32°F
0°C
32°F
-0°C
34°F
1°C
35°F
1°C
35°F
2°C
37°F
3°C
38°F
3°C
38°F
4°C
39°F
4°C
39°F
4°C
40°F
4°C
45°F
7°C
48°F
9°C
46°F
8°C
42°F
6°C
42°F
5°C
42°F
5°C
41°F
5°C
40°F
4°C
39°F
4°C
39°F
4°C
38°F
3°C
38°F
3°C
37°F
3°C
37°F
3°C
37°F
3°C
38°F
3°C
39°F
4°C
39°F
4°C
39°F
4°C
39°F
4°C
39°F
4°C
40°F
4°C
41°F
5°C
41°F
5°C
44°F
7°C
48°F
9°C
46°F
8°C
41°F
5°C
40°F
5°C
40°F
4°C
40°F
4°C
39°F
4°C
40°F
4°C
40°F
4°C
30.3 in
1026 mb
30.3 in
1026 mb
30.3 in
1026 mb
30.3 in
1026 mb
30.33 in
1027 mb
30.33 in
1027 mb
30.33 in
1027 mb
30.3 in
1026 mb
30.3 in
1026 mb
30.27 in
1025 mb
30.24 in
1024 mb
30.21 in
1023 mb
30.18 in
1022 mb
30.18 in
1022 mb
30.18 in
1022 mb
30.18 in
1022 mb
30.18 in
1022 mb
30.21 in
1023 mb
30.21 in
1023 mb
30.21 in
1023 mb
30.21 in
1023 mb
30.21 in
1023 mb
30.21 in
1023 mb
30.21 in
1023 mb
30.21 in
1023 mb
30.21 in
1023 mb
30.21 in
1023 mb
30.21 in
1023 mb
30.21 in
1023 mb
30.21 in
1023 mb
30.21 in
1023 mb
30.18 in
1022 mb
30.18 in
1022 mb
30.15 in
1021 mb
30.15 in
1021 mb
30.12 in
1020 mb
30.09 in
1019 mb
30.09 in
1019 mb
30.06 in
1018 mb
30.06 in
1018 mb
30.09 in
1019 mb
30.09 in
1019 mb
30.12 in
1020 mb
30.12 in
1020 mb
30.12 in
1020 mb
30.12 in
1020 mb
30.12 in
1020 mb
30.15 in
1021 mb
60%60%60%60%60%60%51%42%36%33%30%30%30%31%40%55%62%65%66%66%66%65%64%64%64%64%64%64%65%65%55%45%40%37%35%34%34%35%41%54%60%62%62%63%64%66%65%66%
WWWWWNWWNWWNWWWWNWWNWWWSWSWSSWSSWSWSWSWSWSSWSSWSSWSSWSSWSSWSSWSSWSSWSSSSSSSSSSSSESSESSESSESSSESSS
2 mph
3 km/h
2 mph
3 km/h
2 mph
3 km/h
2 mph
3 km/h
2 mph
3 km/h
2 mph
3 km/h
1 mph
1 km/h
1 mph
2 km/h
1 mph
2 km/h
2 mph
3 km/h
2 mph
3 km/h
2 mph
3 km/h
2 mph
3 km/h
2 mph
3 km/h
2 mph
3 km/h
2 mph
4 km/h
3 mph
4 km/h
3 mph
4 km/h
2 mph
4 km/h
2 mph
4 km/h
2 mph
4 km/h
3 mph
5 km/h
3 mph
5 km/h
3 mph
5 km/h
3 mph
5 km/h
3 mph
5 km/h
3 mph
5 km/h
3 mph
5 km/h
3 mph
5 km/h
3 mph
5 km/h
3 mph
5 km/h
4 mph
6 km/h
5 mph
9 km/h
6 mph
10 km/h
6 mph
10 km/h
7 mph
11 km/h
7 mph
12 km/h
7 mph
12 km/h
6 mph
9 km/h
4 mph
7 km/h
4 mph
7 km/h
4 mph
6 km/h
4 mph
6 km/h
4 mph
6 km/h
4 mph
6 km/h
3 mph
5 km/h
4 mph
6 km/h
4 mph
6 km/h
0%0%0%0%0%0%0%0%0%0%0%0%0%0%0%0%0%0%0%0%0%0%0%0%0%0%0%0%0%0%0%0%0%0%0%0%0%0%0%0%0%0%0%0%0%0%0%0%
6 mi
10 km
6 mi
10 km
6 mi
10 km
6 mi
10 km
6 mi
10 km
6 mi
10 km
6 mi
10 km
6 mi
10 km
6 mi
10 km
6 mi
10 km
6 mi
10 km
6 mi
10 km
6 mi
10 km
6 mi
10 km
6 mi
10 km
6 mi
10 km
6 mi
10 km
6 mi
10 km
6 mi
10 km
6 mi
10 km
6 mi
10 km
6 mi
10 km
6 mi
10 km
6 mi
10 km
6 mi
10 km
6 mi
10 km
6 mi
10 km
6 mi
10 km
6 mi
10 km
6 mi
10 km
6 mi
10 km
6 mi
10 km
6 mi
10 km
6 mi
10 km
6 mi
10 km
6 mi
10 km
6 mi
10 km
6 mi
10 km
6 mi
10 km
6 mi
10 km
6 mi
10 km
6 mi
10 km
6 mi
10 km
6 mi
10 km
6 mi
10 km
6 mi
10 km
6 mi
10 km
6 mi
10 km

Day/Time
Weather
Condition
Temperature
Dew Point
Pressure
Humidity
Wind Direction
Wind Speed
Prob Precip %
Visibility
Prob Precip % = Probability of Precipitation.